Location: Unspecified
(0.0000°N, 0.0000°E)
Time: 18:28:15
(UTC+00:00)

Hubble Space Telescope - Pass Details

Date: 16 October 2021
Orbit: 535 x 538 km, 28.5° (Epoch: 23 October)

Event Time Altitude Azimuth Distance (km) Brightness Sun altitude
Rises 19:08:00 0° 209° (SSW) 2,668 4.9 -20.4°
Reaches altitude 10° 19:11:23 10° 181° (S) 1,777 3.5 -21.2°
Enters shadow 19:12:41 13° 162° (SSE) 1,618 3.1 -21.5°
